Voltar ao catálogo

STARLINK-32099

AtivoComunicaçõesVLEO
NORAD 59697·PAYLOAD·🇺🇸 United States

Lançado May 8, 2024 de Cape Canaveral Space Force Station

Loading…

Próximas Passagens (próximas 24 horas)

TLE

AtualizadoSource: CelesTrak SupGP

Época: Sep 14, 2026, 22:11 UTC

1 59697C 24086R   26257.92479167  .00054158  00000+0  19618-2 0  2579
2 59697  43.0001  70.9847 0001461 271.3058 163.3470 15.27547665    12

Acompanhe STARLINK-32099 em tempo real com AllMySat

Download on the App Store